CPX785 Details

Departure: Tan Son Nhat International Airport (VVTS)
Arrival: Incheon International Airport (RKSI)
Route: TANOS1B PTH N500 AGSAM L625 ABVAR M646 POTIB Q11 DRAKE Q11 WP900 L4 LIPLO Y741 BOLUT B576 OLMEN OLMEN1P


Current Weather Information
VVTS 251030Z VRB02KT 9999 SCT015 SCT050 28/25 Q1006 NOSIG
RKSI 251030Z 26006KT 240V310 CAVOK 23/14 Q1015 NOSIG